Weather History for Tel Aviv, Israel

Change the Weather History Date:

Sunday, November 13, 2011

  Actual Average Record
Temperature  
Mean Temperature 68 °F -  
Max Temperature 80 °F 70 °F 86 °F (1996)
Min Temperature 55 °F 53 °F 50 °F (2005)
Cooling Degree Days 2    
Growing Degree Days 18 (Base 50)    
Moisture  
Dew Point 40 °F    
Average Humidity 39    
Maximum Humidity 72    
Minimum Humidity 9    
Precipitation  
Precipitation 0.00 in - - ()
Sea Level Pressure  
Sea Level Pressure 29.93 in    
Wind  
Wind Speed 4 mph ()    
Max Wind Speed 10 mph    
Max Gust Speed -    
Visibility 6.1 miles    
Events      
Averages and records for this station are not official NWS values.
T = Trace of Precipitation, MM = Missing Value Source: Averaged Metar Reports

Daily Weather History Graph

Daily Weather History Graph

Search for Another Location

Airport:

Trip Planner

Search our weather history database for the weather conditions in past years. The results will help you decide how hot, cold, wet, or windy it might be!

Date:

Astronomy

Nov. 13, 2011 Rise Set
Actual Time 6:06 AM IST 4:42 PM IST
Civil Twilight 5:41 AM IST 5:07 PM IST
Nautical Twilight 5:11 AM IST 5:37 PM IST
Astronomical Twilight 4:42 AM IST 6:06 PM IST
Moon 6:38 PM IST (11/13) 8:16 AM IST (11/13)
Length of Visible Light 11h 26m
Length of Day
10h 35m
Waning Gibbous, 94% of the Moon is Illuminated
Nov 13
Waning Gibbous
Nov 18
Last Quarter
Nov 25
New
Dec 2
First Quarter
Dec 10
Full

Hourly Weather History & Observations

Time (IST) Temp. Dew Point Humidity Pressure Visibility Wind Dir Wind Speed Gust Speed Precip Events Conditions
12:50 AM 60.8 °F 50.0 °F 68% 29.95 in - East 2.3 mph - N/A   Clear
1:50 AM 57.2 °F 48.2 °F 72% 29.95 in - East 3.5 mph - N/A   Clear
2:00 AM 57 °F 49 °F 66% 29.95 in 6 mi East 3.5 mph - -  
2:50 AM 57.2 °F 44.6 °F 63% 29.92 in - Variable 2.3 mph - N/A   Clear
3:50 AM 59.0 °F 46.4 °F 63% 29.92 in - NNE 3.5 mph - N/A   Clear
4:50 AM 59.0 °F 42.8 °F 55% 29.92 in - North 4.6 mph - N/A   Clear
5:50 AM 59.0 °F 37.4 °F 45% 29.92 in - NE 8.1 mph - N/A   Clear
6:50 AM 60.8 °F 35.6 °F 39% 29.95 in - East 10.4 mph - N/A   Clear
7:50 AM 66.2 °F 35.6 °F 32% 29.95 in - East 2.3 mph - N/A   Clear
8:00 AM 67 °F 35 °F 20% 29.96 in 6 mi East 2.3 mph - -   Scattered Clouds
8:50 AM 68.0 °F 35.6 °F 30% 29.98 in - West 8.1 mph - N/A   Clear
9:50 AM 71.6 °F 41.0 °F 33% 29.98 in - Variable 2.3 mph - N/A   Clear
10:50 AM 73.4 °F 28.4 °F 19% 29.95 in - East 8.1 mph - N/A   Clear
11:50 AM 77.0 °F 30.2 °F 18% 29.92 in - ESE 9.2 mph - N/A   Clear
12:50 PM 78.8 °F 30.2 °F 17% 29.89 in - SE 5.8 mph - N/A   Clear
1:50 PM 78.8 °F 32.0 °F 18% 29.89 in - SW 3.5 mph - N/A   Clear
2:00 PM 80 °F 31 °F 9% 29.89 in 6 mi SW 3.5 mph - -   Scattered Clouds
2:50 PM 75.2 °F 37.4 °F 25% 29.89 in - West 10.4 mph - N/A   Clear
3:50 PM 73.4 °F 39.2 °F 29% 29.89 in - West 10.4 mph - N/A   Clear
4:50 PM 71.6 °F 42.8 °F 35% 29.89 in - West 4.6 mph - N/A   Clear
5:50 PM 68.0 °F 42.8 °F 40% 29.92 in - SW 1.2 mph - N/A   Clear
6:50 PM 68.0 °F 44.6 °F 43% 29.92 in - SE 4.6 mph - N/A   Clear
7:50 PM 66.2 °F 42.8 °F 43% 29.92 in - East 4.6 mph - N/A   Clear
8:00 PM 66 °F 42 °F 31% 29.94 in 6 mi East 4.6 mph - -  
8:50 PM 66.2 °F 41.0 °F 40% 29.92 in 6.2 mi East 4.6 mph - N/A   Partly Cloudy
9:50 PM 64.4 °F 41.0 °F 42% 29.92 in 6.2 mi Variable 2.3 mph - N/A   Scattered Clouds
10:50 PM 62.6 °F 42.8 °F 48% 29.92 in 6.2 mi East 2.3 mph - N/A   Scattered Clouds
11:50 PM 62.6 °F 46.4 °F 55% 29.89 in 6.2 mi SE 2.3 mph - N/A   Scattered Clouds